SCP
2 2 3 5 8 10 11 11 10 9 8 6 4 3 3 2 2 2 1 1 1 1 1 1 1 1 0 1 1 0 0 0 0 0 0 0 0 0 0 0 0 0 0
3 3 3 4 8 11 12 11 11 10 8 6 5 4 3 3 2 2 1 1 1 1 1 1 1 1 0 0 1 1 1 0 0 0 0 0 0 0 0 0 0 0 0
4 3 3 4 7 10 12 12 11 11 9 7 6 5 4 3 3 2 2 2 2 1 1 1 1 1 1 0 0 1 1 1 1 0 0 0 0 0 0 0 0 0 0
4 4 3 3 5 8 11 12 12 11 9 7 6 5 5 4 3 2 2 2 2 1 1 1 1 1 1 1 0 0 1 1 1 1 0 0 0 0 0 0 0 0 0
4 4 3 3 4 6 9 11 11 11 9 8 7 6 5 4 3 2 2 2 2 1 1 1 1 1 1 1 0 0 1 1 1 1 1 0 0 0 0 0 0 0 0
4 4 3 3 4 5 7 9 10 10 9 8 7 6 5 4 3 2 2 2 2 2 1 1 1 1 1 1 1 0 0 1 1 1 0 0 0 0 0 0 0 0 0
5 4 4 4 4 4 6 7 8 9 9 8 7 6 5 4 3 3 2 2 2 1 1 1 1 1 1 1 1 0 0 0 0 0 0 0 0 0 0 0 0 0 0
6 5 4 4 4 4 5 6 7 8 8 8 7 6 5 4 3 3 2 2 2 2 1 1 1 1 1 1 0 0 0 0 0 0 0 0 0 0 0 0 0 0 0
6 6 5 4 3 4 4 6 6 7 7 7 6 6 5 4 4 3 2 2 2 2 2 1 1 1 1 1 0 0 1 1 0 0 0 0 0 0 0 0 1 1 1
6 6 6 4 4 3 4 5 5 6 7 7 6 5 5 4 4 3 2 1 1 1 1 1 1 1 1 1 1 1 1 1 1 0 0 0 0 0 0 0 0 1 1
6 6 6 5 4 4 4 4 5 6 6 6 5 5 4 4 4 3 2 1 1 1 1 1 1 1 1 0 0 0 0 0 0 0 0 0 0 0 0 0 0 0 1
6 6 6 5 5 5 4 4 4 5 5 5 5 5 5 4 4 3 2 1 1 1 1 1 1 1 0 0 0 0 0 0 0 0 0 0 0 0 1 0 0 0 0
6 6 6 6 6 5 4 4 4 4 5 5 5 5 5 4 4 3 2 1 1 1 1 1 1 0 0 0 0 0 0 0 0 0 0 0 0 1 1 1 1 1 1
6 6 6 6 6 6 5 4 3 4 5 5 5 4 4 4 3 2 2 2 2 2 1 1 1 0 0 0 0 0 0 0 0 0 0 0 1 1 1 1 1 1 1
6 6 7 7 6 6 5 4 3 3 4 4 4 4 4 4 3 2 2 2 2 2 2 1 1 0 0 0 0 0 0 0 0 0 0 0 0 1 1 1 1 1 1
6 6 6 6 6 5 5 4 4 3 3 4 4 4 4 3 3 2 2 2 2 2 2 1 1 0 0 0 0 0 0 0 0 0 0 0 0 0 1 1 1 1 1
6 6 5 5 5 5 4 4 4 3 3 3 4 4 4 4 3 2 2 2 2 2 2 1 1 0 0 0 0 0 0 0 0 0 0 0 0 0 0 1 1 1 1
5 5 5 5 5 5 4 4 4 3 3 3 3 4 4 4 3 2 1 1 2 2 1 1 1 0 0 0 0 0 0 0 0 0 0 0 0 0 0 0 1 1 1
5 5 5 6 6 5 4 4 4 3 3 2 3 4 4 4 3 2 1 1 1 1 1 1 1 1 0 0 0 0 0 0 0 0 0 0 0 0 0 0 0 0 0
4 4 5 6 6 5 5 4 4 3 2 2 2 3 4 4 3 2 1 1 0 1 1 1 1 1 0 0 0 0 0 0 0 0 0 0 0 0 0 0 0 0 0
3 4 5 6 6 5 5 4 3 2 2 2 2 2 3 3 3 2 1 0 0 0 0 1 1 1 1 0 0 0 0 0 0 0 0 0 0 0 0 0 0 0 0
3 4 5 5 5 5 4 4 3 2 1 1 1 1 2 2 2 2 1 1 1 0 0 0 1 1 1 0 0 0 0 0 0 0 0 0 0 0 0 0 0 0 0
3 4 5 5 4 4 4 4 3 2 1 1 1 1 1 1 2 1 1 1 1 1 0 0 0 0 0 0 0 0 0 0 0 0 0 0 0 0 0 0 0 0 0
4 4 5 4 3 4 4 3 3 2 1 1 1 1 1 1 1 1 1 1 1 1 1 0 0 0 0 0 0 0 0 0 0 0 0 0 0 0 0 0 0 0 0
4 5 5 4 4 3 3 3 2 2 1 1 1 1 1 1 1 1 1 1 1 1 1 0 0 0 0 0 0 0 0 0 0 0 0 0 0 0 0 0 0 0 0
4 5 5 5 4 4 3 2 2 1 1 1 1 1 1 1 1 0 1 1 0 0 0 0 0 0 0 0 0 0 0 0 0 0 0 0 0 0 0 0 0 0 0
Wind_Speed
3 4 8 10 11 11 12 12 12 13 13 13 13 13 13 14 14 14 13 13 13 13 13 14 14 14 13 13 13 13 13 12 12 12 12 12 12 12 12 12 11 7 12
6 6 9 10 11 12 12 12 12 12 13 13 13 13 13 13 13 13 13 13 13 13 13 13 13 13 13 12 12 12 12 12 12 11 11 10 10 11 11 11 10 7 11
8 7 9 11 11 12 12 12 12 12 12 13 13 13 13 13 13 13 13 13 13 12 12 12 12 12 12 12 12 12 12 11 11 11 10 5 6 10 11 10 9 10 10
8 7 7 10 11 11 12 12 12 12 12 12 13 13 13 13 13 13 13 13 12 12 12 12 12 11 11 11 11 11 11 11 10 10 5 4 4 9 10 10 10 10 10
6 6 8 10 11 12 12 12 12 12 12 12 12 12 12 12 12 12 12 12 12 11 11 11 11 11 11 11 11 10 10 10 10 7 4 4 3 8 10 10 10 10 9
6 5 7 11 10 12 12 12 12 12 12 11 12 12 12 12 12 12 11 11 11 11 11 11 10 10 10 10 10 10 10 10 8 4 4 3 3 7 9 9 9 9 9
6 5 7 10 10 11 12 12 12 11 11 11 11 11 12 11 11 11 11 11 11 10 10 10 9 9 10 10 10 10 9 9 5 4 3 3 3 8 8 8 9 9 9
7 6 7 9 9 10 11 11 11 11 11 11 11 10 11 11 11 11 10 10 10 10 9 9 9 9 9 9 9 9 9 8 5 4 3 2 5 7 7 7 8 8 8
5 5 5 6 7 8 10 10 10 10 10 10 10 10 10 10 10 10 10 10 9 9 9 9 8 8 8 8 8 8 8 8 4 2 2 2 5 6 6 7 7 7 7
4 4 4 4 4 5 6 9 9 9 9 10 9 9 8 8 9 9 8 8 8 8 8 8 8 8 8 7 8 7 7 6 3 2 1 2 4 5 5 5 6 6 6
4 4 4 4 4 4 4 7 7 8 8 9 8 8 7 4 4 5 6 7 7 7 8 7 7 7 7 7 7 7 6 2 2 2 1 3 3 4 4 4 5 5 5
5 5 4 4 4 4 4 4 4 4 5 4 4 5 3 3 3 4 6 6 6 6 6 7 7 7 6 3 4 6 2 2 2 1 1 3 3 3 4 4 5 5 5
5 5 5 5 5 4 3 3 2 3 3 4 4 4 4 3 2 3 2 3 3 4 3 4 4 3 2 2 2 2 2 2 1 1 2 3 3 3 4 4 5 5 5
4 4 4 5 5 4 4 3 3 3 3 3 4 4 4 3 2 2 2 2 2 1 2 2 2 2 3 2 2 3 2 1 1 1 2 4 4 3 3 4 5 5 5
5 4 4 6 6 4 4 3 3 2 3 3 3 3 4 3 3 3 2 2 2 2 2 2 2 2 2 2 2 2 2 2 1 1 2 4 4 4 4 4 5 5 5
5 5 4 5 6 5 4 3 3 2 2 3 3 3 3 3 3 3 2 2 2 2 2 2 2 2 2 2 2 2 1 1 1 1 1 3 5 4 5 5 5 5 5
4 4 4 5 5 5 5 4 3 3 3 3 3 3 3 3 4 3 3 2 2 2 2 2 2 2 2 2 2 1 1 1 1 1 2 2 2 4 5 6 6 6 6
4 4 3 4 5 5 4 3 3 3 3 2 3 3 3 3 3 3 2 2 2 2 2 2 2 2 2 1 1 1 1 1 1 1 1 2 2 2 4 6 7 7 7
4 4 3 4 5 5 5 3 2 2 2 2 2 3 3 3 4 3 2 2 2 2 2 2 2 2 2 1 1 1 1 1 1 1 1 1 1 1 2 4 7 7 8
3 3 3 4 5 5 4 3 3 2 2 1 2 3 4 3 4 3 2 2 3 2 2 2 2 2 2 1 1 1 1 1 1 1 1 1 1 1 2 2 3 5 8
3 3 3 4 5 4 4 3 3 2 2 2 1 2 3 4 4 4 3 3 3 2 2 3 3 3 1 1 1 1 2 1 1 1 0 1 1 1 1 2 2 2 3
4 3 4 4 5 4 3 3 2 2 1 1 2 1 2 3 3 3 4 3 3 2 2 2 3 2 1 1 2 1 1 2 2 1 1 1 1 1 2 2 2 2 3
3 4 3 4 5 4 4 3 3 2 1 1 1 1 1 2 3 3 3 3 3 3 3 3 3 4 2 1 1 2 2 3 2 2 1 1 1 1 2 2 2 3 3
4 3 3 3 3 4 5 5 5 3 3 2 2 2 2 2 3 3 4 3 3 3 3 2 2 2 3 2 1 0 1 2 1 2 2 1 2 2 2 2 3 3 3
3 3 3 3 3 3 4 5 5 3 2 2 2 2 2 2 2 3 3 3 3 2 3 2 2 2 2 3 2 1 1 0 1 1 3 3 2 2 2 3 2 2 3
3 3 2 3 2 2 4 5 5 5 4 3 3 3 2 1 1 2 3 3 3 2 2 2 2 2 2 2 1 1 1 1 1 1 2 3 3 3 3 2 2 2 2
Wind_Direction
165 168 159 145 138 133 128 124 124 121 120 119 118 117 116 114 113 112 109 107 104 102 100 99 96 94 91 88 86 84 82 81 80 80 78 77 77 77 74 72 68 61 67
150 156 154 146 141 137 132 127 124 123 121 121 120 118 117 115 114 113 111 109 107 104 102 100 97 95 93 90 87 85 82 81 80 80 76 72 74 77 76 72 70 69 69
140 147 147 145 140 137 133 130 125 124 125 123 122 121 120 118 116 115 113 111 107 104 103 101 99 97 95 93 89 86 83 83 81 79 71 53 64 74 75 72 71 70 69
140 143 144 142 140 137 133 130 131 126 127 127 125 123 122 121 119 117 115 112 109 106 103 100 99 98 96 94 92 89 86 83 81 76 58 45 53 72 71 69 68 67 67
138 142 149 139 141 139 136 134 131 132 128 129 129 127 125 123 121 119 117 114 111 107 103 101 99 99 97 94 92 89 86 82 79 68 55 45 45 69 69 67 64 63 63
139 142 150 142 140 142 140 138 133 131 132 129 132 132 130 127 124 122 119 115 113 109 106 102 100 99 97 94 90 89 86 82 72 59 51 40 42 66 68 65 63 62 59
143 143 149 146 141 143 141 138 135 133 134 133 132 135 133 129 127 123 121 118 116 113 110 106 104 101 95 91 88 88 86 83 73 59 47 33 51 67 66 65 60 58 54
145 143 149 147 142 142 143 139 136 134 134 134 131 134 135 133 129 125 123 121 118 118 114 107 103 100 97 92 89 87 85 82 74 61 46 31 58 65 65 63 57 52 50
141 140 145 147 145 142 143 139 137 134 131 131 129 126 131 131 131 128 125 122 120 118 113 107 102 98 96 94 93 89 84 78 67 56 48 33 53 59 60 57 51 47 43
136 136 137 132 137 137 144 138 134 132 129 127 125 119 118 124 127 125 123 123 122 119 115 111 104 97 91 90 91 88 80 69 54 48 32 37 49 49 52 52 45 41 37
141 139 139 135 134 130 133 136 131 129 125 122 123 117 108 109 114 117 119 121 122 120 117 113 104 94 83 82 87 82 73 53 48 31 9 38 44 43 43 40 34 28 25
169 162 151 147 142 135 131 131 131 123 122 116 121 120 111 109 109 108 110 111 112 110 111 107 97 87 75 64 78 76 62 48 36 11 5 26 28 29 32 27 21 19 18
175 167 162 156 148 141 135 130 128 124 121 119 121 122 117 109 105 101 106 99 96 95 90 89 82 74 74 74 73 70 69 59 32 2 357 13 12 13 19 15 8 8 10
169 169 164 157 148 144 135 134 128 136 137 135 135 130 129 127 122 114 111 104 97 100 101 90 89 81 77 76 86 85 72 62 31 359 349 8 3 8 9 6 5 5 7
173 173 166 164 153 150 139 136 129 136 142 140 138 138 137 143 143 134 119 118 114 113 117 112 103 97 85 73 75 86 75 59 37 11 348 7 9 8 6 3 359 357 358
180 177 168 166 157 151 144 141 141 140 137 140 143 143 143 140 138 140 137 131 131 128 123 123 118 112 97 88 78 79 76 51 41 25 1 358 9 9 2 355 351 348 345
185 171 167 165 154 151 146 146 144 142 141 152 152 149 142 143 143 135 150 140 143 132 119 111 103 98 95 86 77 66 65 44 40 19 2 359 359 8 4 354 347 341 335
179 173 170 165 156 155 148 147 148 148 148 151 157 154 149 143 140 136 142 144 139 134 126 122 117 102 97 95 80 41 36 35 25 9 17 13 9 6 358 358 350 344 335
181 172 170 166 158 155 148 140 139 134 139 146 154 155 156 145 140 140 142 136 126 131 129 132 112 122 124 104 83 27 6 20 341 3 13 10 12 12 357 355 356 350 341
171 160 170 161 153 149 143 131 124 123 140 146 167 166 156 151 147 143 141 139 133 128 136 137 132 110 122 128 83 17 342 331 329 337 320 343 0 10 3 354 350 344 342
162 162 172 166 156 149 151 153 155 166 165 168 166 159 157 152 150 148 144 143 141 141 148 151 145 130 108 115 88 2 335 316 290 287 315 351 348 338 348 343 340 336 330
178 174 172 178 164 160 163 163 157 147 152 165 156 160 164 162 161 158 155 156 154 141 136 139 152 145 129 130 133 127 323 317 303 290 297 286 300 322 327 328 324 326 331
183 174 180 182 172 163 149 129 115 101 93 92 167 167 175 182 176 171 164 155 160 159 164 163 166 163 168 185 154 152 173 247 298 300 276 273 287 299 300 301 313 320 319
183 159 164 171 164 161 151 152 157 164 174 196 196 181 182 192 187 173 159 160 166 165 159 169 162 175 166 184 189 205 202 186 209 299 300 288 284 282 287 298 299 300 304
172 160 158 144 148 162 162 163 166 174 176 171 171 169 182 200 185 171 162 161 165 159 160 158 153 163 177 175 181 184 221 280 210 212 277 297 305 280 269 272 278 286 292
152 150 152 155 165 162 173 174 176 178 173 173 179 188 185 188 183 180 162 158 161 159 162 164 158 161 175 161 166 179 190 202 218 213 249 279 289 287 282 272 268 279 289